Terminal Aerodrome Forecast
Issued by NWS Sioux Falls, SD

Home | Current Version | Previous Version | Text Only | Print | Product List | Glossary Off
Versions: 1 2 3 4 5 6 7 8 9 10 11 12 13 14 15 16 17 18 19

000
FTUS43 KFSD 010942 AAB
TAFHON
TAF AMD
KHON 010942Z 0110/0206 16006KT P6SM SCT012 BKN100
      TEMPO 0110/0113 BKN012
     FM011500 24007KT P6SM BKN100
     FM011900 32007KT P6SM BKN080=

USA.gov is the U.S. government's official web portal to all federal, state and local government web resources and services.